EGYPTSAT A

导读 | 星芒AI

EGYPTSAT A 是埃及首颗自主研发的卫星,由埃及遥感卫星公司(EGIS)与德国合作开发。该卫星于2007年发射,运行在太阳同步轨道上,主要用于地球观测和遥感应用。它搭载了多光谱成像仪,能够提供高分辨率的地球图像,支持农业、环境监测、城市规划等领域的发展。EGYPTSAT A 的成功发射标志着埃及在航天技术领域的重大进步,增强了其在区域和国际上的科技竞争力。

基本信息
目录编号:
44047
目录名称:
EGYPTSAT A
国际标识:
2019-008A
轨道中心:
EARTH
卫星名称:
EGYPTSAT A
卫星全名:
--
卫星状态:
在轨 (已飞行2442 天)
发射日期:
2019-02-21 UTC
国别 :
埃及 (EG)
星等 :
--
轨道信息
数据来源 国际轨道数据
星历时间: 2025-10-29T00:01:34+0800
15小时前
查看轨道信息
半长轴: 7031.913km
偏心率: 0.0000934
轨道倾角: 98.005°
近地点辐角 91.556°
升交点赤经 4.836°
平近点角 268.575°
近地点: 653.121km
远地点: 654.435km
周期: 97.807分钟
每日圈数: 14.722872
详细信息
使用方式:
暂无
2D轨道图
3D轨道图
轨道高度分析图
轨道倾角分析图
轨道综合分析图
查看轨道综合分析图